TimeCST,TemperatureF,Dew PointF,Humidity,Sea Level PressureIn,VisibilityMPH,Wind Direction,Wind SpeedMPH,Gust SpeedMPH,PrecipitationIn,Events,Conditions,WindDirDegrees,DateUTC
12:15 AM,19.4,14.0,80,30.19,10.0,SW,4.6,-,N/A,,Clear,230,2013-01-23 06:15:00
12:35 AM,19.4,12.2,74,30.18,10.0,WSW,5.8,-,N/A,,Clear,240,2013-01-23 06:35:00
12:55 AM,19.4,14.0,80,30.17,10.0,SW,5.8,-,N/A,,Clear,230,2013-01-23 06:55:00
1:15 AM,19.4,14.0,80,30.17,10.0,SW,4.6,-,N/A,,Clear,220,2013-01-23 07:15:00
1:35 AM,19.4,15.8,86,30.17,10.0,SW,4.6,-,N/A,,Clear,220,2013-01-23 07:35:00
1:55 AM,19.4,14.0,80,30.17,10.0,SW,3.5,-,N/A,,Clear,220,2013-01-23 07:55:00
2:15 AM,19.4,14.0,80,30.16,10.0,SSW,4.6,-,N/A,,Clear,210,2013-01-23 08:15:00
2:35 AM,17.6,12.2,79,30.16,10.0,SW,3.5,-,N/A,,Clear,230,2013-01-23 08:35:00
2:55 AM,19.4,15.8,86,30.15,10.0,West,3.5,-,N/A,,Clear,260,2013-01-23 08:55:00
3:15 AM,21.2,17.6,86,30.15,10.0,West,4.6,-,N/A,,Clear,270,2013-01-23 09:15:00
3:35 AM,21.2,15.8,80,30.15,10.0,Calm,Calm,-,N/A,,Clear,0,2013-01-23 09:35:00
3:55 AM,21.2,15.8,80,30.14,10.0,SW,4.6,-,N/A,,Clear,220,2013-01-23 09:55:00
4:15 AM,19.4,12.2,74,30.13,10.0,South,8.1,-,N/A,,Clear,190,2013-01-23 10:15:00
4:35 AM,19.4,15.8,86,30.13,10.0,SW,6.9,-,N/A,,Clear,220,2013-01-23 10:35:00
4:55 AM,19.4,15.8,86,30.12,10.0,SSW,4.6,-,N/A,,Clear,210,2013-01-23 10:55:00
5:15 AM,19.4,15.8,86,30.11,10.0,WSW,5.8,-,N/A,,Clear,240,2013-01-23 11:15:00
5:35 AM,21.2,15.8,80,30.11,10.0,West,4.6,-,N/A,,Clear,280,2013-01-23 11:35:00
5:55 AM,23.0,17.6,80,30.12,10.0,West,5.8,-,N/A,,Clear,270,2013-01-23 11:55:00
6:15 AM,21.2,17.6,86,30.13,10.0,West,8.1,-,N/A,,Clear,270,2013-01-23 12:15:00
6:35 AM,23.0,17.6,80,30.13,10.0,WSW,6.9,-,N/A,,Clear,250,2013-01-23 12:35:00
6:55 AM,24.8,19.4,80,30.13,10.0,West,5.8,-,N/A,,Clear,260,2013-01-23 12:55:00
7:15 AM,24.8,19.4,80,30.13,10.0,WSW,8.1,-,N/A,,Clear,250,2013-01-23 13:15:00
7:35 AM,24.8,17.6,74,30.13,10.0,WSW,9.2,-,N/A,,Clear,240,2013-01-23 13:35:00
7:55 AM,24.8,19.4,80,30.13,10.0,WSW,8.1,-,N/A,,Clear,250,2013-01-23 13:55:00
8:15 AM,24.8,17.6,74,30.13,10.0,West,3.5,-,N/A,,Clear,260,2013-01-23 14:15:00
8:35 AM,24.8,19.4,80,30.13,10.0,WSW,3.5,-,N/A,,Clear,250,2013-01-23 14:35:00
8:55 AM,26.6,21.2,80,30.12,10.0,WSW,3.5,-,N/A,,Clear,240,2013-01-23 14:55:00
9:15 AM,28.4,23.0,80,30.12,10.0,Calm,Calm,-,N/A,,Clear,0,2013-01-23 15:15:00
9:35 AM,33.8,26.6,75,30.13,10.0,WSW,5.8,-,N/A,,Clear,250,2013-01-23 15:35:00
9:55 AM,35.6,24.8,65,30.14,10.0,WSW,6.9,-,N/A,,Clear,240,2013-01-23 15:55:00
10:15 AM,37.4,26.6,65,30.15,10.0,Calm,Calm,-,N/A,,Clear,0,2013-01-23 16:15:00
10:35 AM,37.4,28.4,70,30.17,10.0,NE,5.8,-,N/A,,Clear,50,2013-01-23 16:35:00
10:55 AM,37.4,26.6,65,30.17,10.0,ENE,5.8,-,N/A,,Clear,70,2013-01-23 16:55:00
11:15 AM,37.4,28.4,70,30.16,10.0,ENE,5.8,-,N/A,,Clear,70,2013-01-23 17:15:00
11:35 AM,39.2,28.4,65,30.16,10.0,ENE,4.6,-,N/A,,Clear,70,2013-01-23 17:35:00
11:55 AM,42.8,28.4,57,30.15,10.0,East,6.9,-,N/A,,Clear,90,2013-01-23 17:55:00
12:15 PM,42.8,28.4,57,30.14,10.0,ENE,4.6,-,N/A,,Clear,70,2013-01-23 18:15:00
12:35 PM,44.6,26.6,49,30.14,10.0,NE,4.6,-,N/A,,Clear,50,2013-01-23 18:35:00
12:55 PM,44.6,26.6,49,30.13,10.0,NE,5.8,-,N/A,,Clear,50,2013-01-23 18:55:00
1:15 PM,46.4,26.6,46,30.12,10.0,ENE,8.1,-,N/A,,Clear,70,2013-01-23 19:15:00
1:35 PM,48.2,26.6,43,30.13,10.0,NE,10.4,-,N/A,,Clear,50,2013-01-23 19:35:00
1:55 PM,48.2,26.6,43,30.13,10.0,NE,10.4,-,N/A,,Clear,40,2013-01-23 19:55:00
2:15 PM,48.2,26.6,43,30.13,10.0,ENE,10.4,-,N/A,,Clear,60,2013-01-23 20:15:00
2:35 PM,48.2,26.6,43,30.13,10.0,ENE,10.4,-,N/A,,Clear,60,2013-01-23 20:35:00
2:55 PM,48.2,24.8,40,30.13,10.0,ENE,11.5,-,N/A,,Clear,60,2013-01-23 20:55:00
3:15 PM,46.4,23.0,40,30.13,10.0,ENE,11.5,-,N/A,,Clear,60,2013-01-23 21:15:00
3:35 PM,46.4,23.0,40,30.14,10.0,NE,11.5,-,N/A,,Clear,50,2013-01-23 21:35:00
3:55 PM,44.6,21.2,39,30.15,10.0,ENE,12.7,-,N/A,,Clear,60,2013-01-23 21:55:00
4:15 PM,42.8,23.0,46,30.16,10.0,NE,11.5,-,N/A,,Clear,50,2013-01-23 22:15:00
4:35 PM,42.8,21.2,42,30.18,10.0,NE,12.7,-,N/A,,Clear,50,2013-01-23 22:35:00
4:55 PM,39.2,21.2,49,30.19,10.0,NE,11.5,-,N/A,,Clear,40,2013-01-23 22:55:00
5:15 PM,39.2,21.2,49,30.19,10.0,NE,9.2,-,N/A,,Clear,40,2013-01-23 23:15:00
5:35 PM,39.2,23.0,52,30.20,10.0,NE,13.8,-,N/A,,Clear,50,2013-01-23 23:35:00
5:55 PM,37.4,21.2,52,30.20,10.0,NE,15.0,-,N/A,,Clear,50,2013-01-23 23:55:00
6:15 PM,35.6,19.4,52,30.21,10.0,NE,15.0,-,N/A,,Clear,50,2013-01-24 00:15:00
6:35 PM,33.8,19.4,56,30.23,10.0,NE,18.4,-,N/A,,Clear,50,2013-01-24 00:35:00
6:55 PM,32.0,19.4,60,30.24,10.0,NE,16.1,-,N/A,,Clear,50,2013-01-24 00:55:00
7:15 PM,30.2,19.4,64,30.25,10.0,NE,13.8,-,N/A,,Clear,50,2013-01-24 01:15:00
7:35 PM,30.2,19.4,64,30.26,10.0,NE,15.0,-,N/A,,Clear,40,2013-01-24 01:35:00
7:55 PM,30.2,19.4,64,30.27,10.0,NE,13.8,-,N/A,,Clear,40,2013-01-24 01:55:00
8:15 PM,30.2,19.4,64,30.27,10.0,NE,13.8,-,N/A,,Clear,50,2013-01-24 02:15:00
8:35 PM,28.4,19.4,69,30.29,10.0,NE,16.1,-,N/A,,Clear,50,2013-01-24 02:35:00
8:55 PM,28.4,19.4,69,30.30,10.0,NE,15.0,-,N/A,,Clear,50,2013-01-24 02:55:00
9:15 PM,28.4,19.4,69,30.29,10.0,NE,12.7,-,N/A,,Clear,50,2013-01-24 03:15:00
9:35 PM,26.6,19.4,74,30.30,10.0,NE,13.8,-,N/A,,Clear,50,2013-01-24 03:35:00
9:55 PM,26.6,17.6,69,30.31,10.0,NE,13.8,-,N/A,,Clear,50,2013-01-24 03:55:00
10:15 PM,26.6,17.6,69,30.33,10.0,NE,16.1,-,N/A,,Clear,50,2013-01-24 04:15:00
10:35 PM,26.6,17.6,69,30.34,10.0,NE,15.0,-,N/A,,Clear,50,2013-01-24 04:35:00
10:55 PM,24.8,15.8,69,30.34,10.0,NE,16.1,20.7,N/A,,Clear,50,2013-01-24 04:55:00
11:15 PM,24.8,15.8,69,30.35,10.0,NE,12.7,-,N/A,,Clear,50,2013-01-24 05:15:00
11:35 PM,24.8,15.8,69,30.34,10.0,ENE,13.8,-,N/A,,Clear,60,2013-01-24 05:35:00
11:55 PM,23.0,14.0,68,30.35,10.0,ENE,13.8,-,N/A,,Clear,60,2013-01-24 05:55:00